QPF
0.05 0.06 0.07 0.04 0.04 0.04 0.04 0.04 0.05 0.05 0.07 0.10 0.10 0.11 0.14 0.17 0.18 0.14 0.12 0.11 0.09 0.07 0.07 0.07 0.08 0.07 0.06 0.06 0.06 0.05 0.06 0.06 0.07 0.07 0.05 0.04 0.06 0.06 0.05 0.06 0.04 0.03 0.03
0.03 0.03 0.04 0.04 0.04 0.04 0.05 0.06 0.05 0.04 0.05 0.07 0.07 0.10 0.14 0.15 0.14 0.10 0.09 0.09 0.09 0.08 0.06 0.06 0.06 0.06 0.06 0.05 0.05 0.05 0.05 0.07 0.07 0.05 0.05 0.04 0.05 0.05 0.04 0.05 0.02 0.02 0.04
0.02 0.02 0.02 0.03 0.04 0.04 0.04 0.04 0.04 0.03 0.05 0.07 0.07 0.09 0.12 0.15 0.15 0.11 0.09 0.08 0.08 0.08 0.06 0.05 0.04 0.03 0.04 0.04 0.04 0.04 0.05 0.05 0.07 0.06 0.04 0.01 0.03 0.05 0.05 0.05 0.03 0.02 0.03
0.02 0.02 0.02 0.03 0.04 0.03 0.02 0.03 0.03 0.02 0.03 0.05 0.05 0.05 0.08 0.11 0.10 0.07 0.07 0.07 0.07 0.07 0.06 0.04 0.03 0.03 0.03 0.03 0.03 0.03 0.04 0.05 0.07 0.07 0.03 0.02 0.01 0.04 0.05 0.04 0.03 0.02 0.02
0.00 0.01 0.02 0.03 0.04 0.03 0.03 0.03 0.03 0.03 0.02 0.03 0.03 0.04 0.05 0.06 0.06 0.06 0.06 0.06 0.06 0.07 0.07 0.05 0.03 0.04 0.04 0.03 0.02 0.02 0.03 0.05 0.07 0.04 0.02 0.01 0.01 0.03 0.04 0.03 0.03 0.02 0.02
0.00 0.00 0.00 0.01 0.03 0.06 0.06 0.06 0.05 0.04 0.03 0.03 0.03 0.04 0.05 0.05 0.06 0.05 0.04 0.05 0.05 0.05 0.06 0.05 0.04 0.03 0.02 0.03 0.02 0.02 0.04 0.06 0.05 0.02 0.02 0.01 0.01 0.02 0.03 0.03 0.03 0.04 0.03
0.00 0.00 0.00 0.01 0.01 0.03 0.08 0.11 0.08 0.07 0.05 0.04 0.04 0.06 0.06 0.07 0.06 0.05 0.05 0.05 0.06 0.05 0.04 0.03 0.02 0.02 0.02 0.02 0.02 0.03 0.05 0.07 0.04 0.03 0.02 0.01 0.01 0.02 0.03 0.03 0.03 0.03 0.02
0.01 0.02 0.01 0.01 0.01 0.01 0.05 0.07 0.08 0.10 0.10 0.10 0.10 0.09 0.08 0.08 0.07 0.06 0.05 0.05 0.05 0.04 0.03 0.02 0.01 0.01 0.01 0.02 0.02 0.03 0.06 0.06 0.03 0.03 0.01 0.00 0.01 0.02 0.02 0.03 0.03 0.02 0.02
0.01 0.00 0.00 0.00 0.00 0.01 0.03 0.05 0.09 0.13 0.18 0.21 0.17 0.12 0.10 0.10 0.09 0.08 0.06 0.05 0.04 0.03 0.02 0.01 0.01 0.01 0.01 0.02 0.02 0.03 0.05 0.06 0.03 0.02 0.01 0.01 0.01 0.01 0.02 0.03 0.04 0.02 0.01
0.01 0.00 0.00 0.00 0.00 0.00 0.01 0.03 0.08 0.13 0.17 0.20 0.17 0.13 0.12 0.12 0.09 0.07 0.04 0.04 0.04 0.03 0.02 0.01 0.01 0.01 0.01 0.02 0.02 0.03 0.05 0.05 0.03 0.02 0.01 0.01 0.01 0.02 0.03 0.03 0.03 0.02 0.01
0.01 0.01 0.00 0.00 0.00 0.00 0.00 0.01 0.02 0.05 0.10 0.13 0.12 0.09 0.08 0.07 0.06 0.05 0.04 0.03 0.03 0.02 0.01 0.01 0.01 0.02 0.02 0.02 0.03 0.04 0.06 0.06 0.05 0.02 0.02 0.01 0.01 0.01 0.02 0.02 0.02 0.02 0.01
0.01 0.02 0.01 0.00 0.00 0.00 0.00 0.01 0.02 0.03 0.05 0.05 0.05 0.03 0.03 0.03 0.04 0.04 0.03 0.03 0.02 0.02 0.02 0.02 0.02 0.02 0.02 0.02 0.03 0.04 0.06 0.05 0.04 0.05 0.02 0.02 0.01 0.01 0.01 0.01 0.01 0.01 0.01
0.01 0.02 0.01 0.00 0.01 0.01 0.01 0.01 0.01 0.02 0.02 0.02 0.01 0.02 0.01 0.02 0.02 0.02 0.01 0.01 0.01 0.01 0.01 0.01 0.01 0.03 0.03 0.03 0.04 0.04 0.05 0.04 0.04 0.03 0.02 0.02 0.02 0.01 0.01 0.00 0.00 0.01 0.01
0.01 0.01 0.01 0.01 0.01 0.01 0.01 0.01 0.01 0.01 0.01 0.01 0.01 0.01 0.01 0.02 0.02 0.01 0.02 0.02 0.01 0.02 0.02 0.02 0.02 0.03 0.04 0.04 0.04 0.04 0.04 0.04 0.03 0.02 0.02 0.02 0.01 0.01 0.01 0.00 0.00 0.00 0.00
0.01 0.01 0.01 0.01 0.00 0.01 0.01 0.02 0.02 0.02 0.01 0.01 0.01 0.01 0.01 0.01 0.01 0.02 0.03 0.03 0.02 0.02 0.02 0.02 0.03 0.02 0.02 0.03 0.04 0.04 0.04 0.05 0.04 0.03 0.01 0.01 0.01 0.01 0.01 0.01 0.01 0.00 0.01
0.00 0.00 0.00 0.01 0.01 0.00 0.01 0.01 0.02 0.02 0.01 0.01 0.02 0.01 0.01 0.01 0.01 0.01 0.02 0.03 0.03 0.03 0.02 0.02 0.02 0.02 0.02 0.03 0.04 0.03 0.03 0.04 0.05 0.05 0.02 0.01 0.01 0.01 0.01 0.01 0.01 0.01 0.02
0.01 0.01 0.01 0.01 0.02 0.02 0.01 0.01 0.01 0.01 0.02 0.02 0.02 0.02 0.02 0.01 0.01 0.01 0.02 0.02 0.03 0.02 0.02 0.02 0.01 0.02 0.02 0.02 0.04 0.03 0.02 0.03 0.04 0.04 0.03 0.01 0.01 0.01 0.01 0.01 0.01 0.02 0.02
0.01 0.01 0.02 0.02 0.03 0.03 0.03 0.02 0.02 0.02 0.02 0.03 0.02 0.02 0.04 0.01 0.01 0.01 0.01 0.02 0.02 0.01 0.01 0.01 0.02 0.02 0.02 0.01 0.02 0.02 0.03 0.04 0.03 0.04 0.04 0.03 0.02 0.00 0.01 0.01 0.02 0.02 0.03
0.00 0.01 0.01 0.01 0.02 0.03 0.03 0.03 0.02 0.03 0.03 0.04 0.03 0.02 0.03 0.02 0.02 0.02 0.02 0.02 0.01 0.01 0.01 0.02 0.04 0.03 0.02 0.03 0.02 0.02 0.03 0.05 0.03 0.03 0.03 0.03 0.02 0.01 0.01 0.01 0.02 0.02 0.02
0.00 0.00 0.00 0.01 0.01 0.02 0.01 0.03 0.02 0.03 0.04 0.05 0.03 0.02 0.02 0.02 0.02 0.03 0.03 0.02 0.01 0.01 0.01 0.02 0.03 0.02 0.02 0.03 0.03 0.02 0.02 0.03 0.03 0.03 0.03 0.03 0.02 0.02 0.02 0.01 0.01 0.01 0.02
0.00 0.00 0.00 0.00 0.01 0.01 0.02 0.03 0.03 0.04 0.05 0.04 0.03 0.02 0.01 0.02 0.02 0.02 0.02 0.02 0.02 0.02 0.02 0.02 0.02 0.02 0.03 0.03 0.03 0.03 0.03 0.03 0.04 0.03 0.02 0.02 0.03 0.03 0.03 0.03 0.01 0.01 0.01
0.00 0.00 0.00 0.00 0.00 0.01 0.03 0.05 0.04 0.04 0.05 0.04 0.02 0.01 0.01 0.01 0.01 0.01 0.02 0.02 0.02 0.02 0.03 0.05 0.05 0.05 0.05 0.04 0.03 0.05 0.04 0.04 0.04 0.03 0.02 0.02 0.03 0.03 0.03 0.04 0.04 0.03 0.03
0.00 0.00 0.00 0.00 0.00 0.01 0.02 0.03 0.02 0.03 0.03 0.02 0.01 0.01 0.02 0.01 0.01 0.02 0.02 0.03 0.02 0.02 0.03 0.03 0.04 0.05 0.07 0.06 0.06 0.04 0.03 0.02 0.02 0.02 0.03 0.04 0.04 0.04 0.04 0.04 0.05 0.05 0.04
0.00 0.00 0.00 0.00 0.01 0.01 0.01 0.01 0.01 0.02 0.02 0.02 0.03 0.04 0.06 0.05 0.04 0.04 0.03 0.03 0.02 0.02 0.02 0.02 0.02 0.04 0.05 0.04 0.05 0.04 0.04 0.04 0.03 0.01 0.02 0.03 0.03 0.03 0.05 0.06 0.05 0.06 0.05
0.00 0.00 0.01 0.02 0.01 0.01 0.02 0.02 0.03 0.03 0.04 0.05 0.04 0.05 0.04 0.03 0.04 0.05 0.03 0.02 0.02 0.02 0.02 0.02 0.04 0.06 0.05 0.04 0.05 0.06 0.07 0.07 0.05 0.03 0.02 0.02 0.02 0.02 0.03 0.04 0.04 0.05 0.05
0.02 0.03 0.04 0.05 0.03 0.02 0.02 0.03 0.03 0.04 0.05 0.04 0.03 0.03 0.02 0.03 0.02 0.03 0.04 0.02 0.02 0.03 0.03 0.03 0.04 0.05 0.05 0.04 0.05 0.06 0.09 0.08 0.08 0.06 0.03 0.02 0.02 0.01 0.03 0.05 0.05 0.06 0.09
MSLP
1014.33 1013.75 1013.24 1012.88 1012.67 1012.60 1012.59 1012.57 1012.50 1012.34 1012.13 1011.91 1011.73 1011.66 1011.71 1011.89 1012.16 1012.46 1012.74 1012.97 1013.12 1013.20 1013.26 1013.31 1013.40 1013.55 1013.74 1013.97 1014.21 1014.45 1014.67 1014.88 1015.09 1015.32 1015.56 1015.83 1016.11 1016.39 1016.64 1016.85 1017.02 1017.16 1017.29
1014.44 1013.95 1013.53 1013.24 1013.08 1013.03 1013.01 1012.98 1012.89 1012.72 1012.50 1012.29 1012.14 1012.11 1012.22 1012.44 1012.74 1013.07 1013.35 1013.56 1013.68 1013.73 1013.73 1013.74 1013.79 1013.89 1014.05 1014.26 1014.47 1014.69 1014.90 1015.10 1015.31 1015.52 1015.77 1016.04 1016.32 1016.59 1016.83 1017.04 1017.21 1017.36 1017.51
1014.45 1014.05 1013.70 1013.47 1013.37 1013.35 1013.36 1013.34 1013.25 1013.09 1012.90 1012.71 1012.60 1012.60 1012.73 1012.97 1013.28 1013.59 1013.85 1014.02 1014.11 1014.12 1014.10 1014.08 1014.11 1014.20 1014.34 1014.53 1014.74 1014.95 1015.16 1015.36 1015.57 1015.80 1016.04 1016.31 1016.59 1016.86 1017.10 1017.31 1017.49 1017.65 1017.81
1014.39 1014.05 1013.78 1013.62 1013.57 1013.60 1013.65 1013.67 1013.61 1013.49 1013.33 1013.18 1013.09 1013.11 1013.24 1013.46 1013.74 1014.01 1014.22 1014.36 1014.41 1014.41 1014.38 1014.36 1014.40 1014.49 1014.64 1014.83 1015.05 1015.26 1015.47 1015.68 1015.90 1016.14 1016.40 1016.67 1016.95 1017.21 1017.45 1017.66 1017.84 1018.01 1018.19
1014.29 1014.02 1013.81 1013.71 1013.73 1013.82 1013.92 1013.98 1013.98 1013.90 1013.78 1013.67 1013.60 1013.62 1013.72 1013.91 1014.12 1014.33 1014.49 1014.59 1014.62 1014.62 1014.61 1014.62 1014.69 1014.81 1014.98 1015.19 1015.41 1015.63 1015.85 1016.07 1016.30 1016.55 1016.82 1017.10 1017.38 1017.63 1017.86 1018.06 1018.24 1018.41 1018.61
1014.22 1013.99 1013.85 1013.81 1013.89 1014.03 1014.18 1014.30 1014.34 1014.31 1014.23 1014.14 1014.09 1014.09 1014.17 1014.30 1014.45 1014.59 1014.70 1014.77 1014.79 1014.81 1014.83 1014.89 1015.01 1015.17 1015.37 1015.59 1015.82 1016.04 1016.27 1016.50 1016.74 1017.00 1017.28 1017.56 1017.83 1018.07 1018.29 1018.47 1018.64 1018.82 1019.02
1014.21 1014.04 1013.94 1013.96 1014.08 1014.26 1014.45 1014.59 1014.67 1014.68 1014.63 1014.57 1014.52 1014.52 1014.57 1014.65 1014.74 1014.83 1014.90 1014.94 1014.97 1015.01 1015.08 1015.20 1015.36 1015.56 1015.79 1016.02 1016.25 1016.47 1016.69 1016.92 1017.17 1017.44 1017.72 1018.00 1018.26 1018.50 1018.69 1018.86 1019.01 1019.18 1019.38
1014.29 1014.17 1014.12 1014.18 1014.33 1014.52 1014.71 1014.87 1014.95 1014.98 1014.96 1014.92 1014.90 1014.90 1014.93 1014.98 1015.04 1015.09 1015.12 1015.15 1015.20 1015.26 1015.37 1015.53 1015.73 1015.96 1016.20 1016.44 1016.66 1016.87 1017.08 1017.30 1017.55 1017.82 1018.11 1018.39 1018.65 1018.86 1019.04 1019.18 1019.32 1019.47 1019.66
1014.45 1014.37 1014.37 1014.46 1014.61 1014.80 1014.97 1015.10 1015.18 1015.21 1015.20 1015.20 1015.20 1015.23 1015.27 1015.32 1015.36 1015.39 1015.41 1015.44 1015.48 1015.56 1015.70 1015.88 1016.10 1016.34 1016.58 1016.81 1017.01 1017.20 1017.40 1017.61 1017.86 1018.13 1018.42 1018.70 1018.95 1019.16 1019.32 1019.44 1019.56 1019.70 1019.88
1014.62 1014.61 1014.66 1014.77 1014.91 1015.07 1015.19 1015.29 1015.34 1015.36 1015.38 1015.40 1015.45 1015.52 1015.60 1015.68 1015.73 1015.76 1015.77 1015.78 1015.82 1015.90 1016.03 1016.22 1016.43 1016.67 1016.90 1017.10 1017.29 1017.47 1017.65 1017.86 1018.10 1018.37 1018.66 1018.94 1019.19 1019.39 1019.54 1019.65 1019.76 1019.88 1020.05
1014.76 1014.82 1014.92 1015.05 1015.18 1015.30 1015.38 1015.42 1015.44 1015.45 1015.49 1015.56 1015.67 1015.81 1015.94 1016.06 1016.14 1016.17 1016.18 1016.17 1016.19 1016.25 1016.36 1016.52 1016.72 1016.94 1017.15 1017.34 1017.51 1017.68 1017.85 1018.05 1018.29 1018.56 1018.85 1019.13 1019.37 1019.57 1019.72 1019.83 1019.93 1020.05 1020.22
1014.80 1014.93 1015.09 1015.25 1015.38 1015.47 1015.50 1015.50 1015.49 1015.51 1015.57 1015.69 1015.87 1016.07 1016.27 1016.44 1016.55 1016.60 1016.60 1016.57 1016.56 1016.58 1016.66 1016.79 1016.96 1017.15 1017.35 1017.53 1017.70 1017.87 1018.04 1018.24 1018.47 1018.74 1019.01 1019.29 1019.53 1019.73 1019.88 1020.00 1020.10 1020.23 1020.39
1014.69 1014.91 1015.14 1015.33 1015.47 1015.54 1015.55 1015.53 1015.51 1015.54 1015.63 1015.80 1016.04 1016.31 1016.57 1016.79 1016.93 1016.99 1016.99 1016.94 1016.89 1016.88 1016.92 1017.02 1017.17 1017.35 1017.54 1017.73 1017.91 1018.08 1018.26 1018.46 1018.68 1018.93 1019.19 1019.44 1019.67 1019.87 1020.03 1020.16 1020.28 1020.41 1020.58
1014.43 1014.73 1015.02 1015.26 1015.43 1015.52 1015.53 1015.51 1015.50 1015.55 1015.68 1015.89 1016.18 1016.50 1016.81 1017.06 1017.23 1017.30 1017.29 1017.24 1017.17 1017.13 1017.15 1017.23 1017.37 1017.55 1017.76 1017.97 1018.17 1018.36 1018.54 1018.73 1018.93 1019.15 1019.37 1019.59 1019.80 1019.98 1020.14 1020.29 1020.43 1020.58 1020.77
1014.04 1014.40 1014.76 1015.05 1015.27 1015.39 1015.43 1015.45 1015.47 1015.55 1015.71 1015.96 1016.28 1016.62 1016.96 1017.23 1017.41 1017.49 1017.49 1017.43 1017.37 1017.33 1017.34 1017.43 1017.58 1017.79 1018.02 1018.26 1018.49 1018.70 1018.89 1019.07 1019.24 1019.40 1019.57 1019.73 1019.90 1020.05 1020.21 1020.37 1020.53 1020.71 1020.92
1013.58 1013.98 1014.38 1014.72 1014.99 1015.16 1015.27 1015.34 1015.41 1015.53 1015.72 1015.99 1016.31 1016.66 1016.99 1017.26 1017.44 1017.54 1017.56 1017.53 1017.49 1017.48 1017.52 1017.64 1017.82 1018.06 1018.33 1018.61 1018.87 1019.10 1019.29 1019.44 1019.57 1019.67 1019.76 1019.86 1019.96 1020.08 1020.22 1020.38 1020.56 1020.76 1020.99
1013.11 1013.52 1013.94 1014.32 1014.63 1014.88 1015.06 1015.20 1015.34 1015.50 1015.72 1015.98 1016.29 1016.61 1016.91 1017.16 1017.35 1017.46 1017.51 1017.53 1017.55 1017.59 1017.69 1017.86 1018.09 1018.37 1018.68 1018.99 1019.27 1019.51 1019.70 1019.82 1019.89 1019.93 1019.94 1019.96 1019.99 1020.05 1020.16 1020.31 1020.51 1020.73 1020.97
1012.69 1013.08 1013.49 1013.89 1014.25 1014.55 1014.81 1015.04 1015.25 1015.46 1015.69 1015.95 1016.22 1016.49 1016.75 1016.97 1017.15 1017.29 1017.40 1017.48 1017.57 1017.70 1017.86 1018.09 1018.36 1018.68 1019.02 1019.35 1019.65 1019.89 1020.07 1020.17 1020.19 1020.16 1020.10 1020.04 1020.00 1020.00 1020.07 1020.20 1020.39 1020.62 1020.87
1012.36 1012.70 1013.08 1013.47 1013.86 1014.22 1014.56 1014.88 1015.16 1015.42 1015.67 1015.90 1016.12 1016.34 1016.54 1016.73 1016.91 1017.08 1017.24 1017.41 1017.59 1017.80 1018.04 1018.32 1018.63 1018.97 1019.32 1019.66 1019.96 1020.20 1020.37 1020.44 1020.44 1020.37 1020.25 1020.12 1020.01 1019.96 1019.98 1020.07 1020.24 1020.47 1020.72
1012.10 1012.39 1012.72 1013.09 1013.49 1013.91 1014.32 1014.71 1015.07 1015.38 1015.64 1015.86 1016.03 1016.19 1016.34 1016.50 1016.68 1016.88 1017.10 1017.35 1017.61 1017.90 1018.20 1018.52 1018.86 1019.20 1019.54 1019.87 1020.16 1020.40 1020.57 1020.64 1020.63 1020.54 1020.39 1020.22 1020.07 1019.96 1019.93 1019.98 1020.12 1020.32 1020.56
1011.90 1012.13 1012.41 1012.75 1013.15 1013.61 1014.08 1014.56 1014.98 1015.34 1015.62 1015.82 1015.96 1016.07 1016.17 1016.30 1016.48 1016.71 1016.99 1017.31 1017.65 1018.00 1018.35 1018.69 1019.02 1019.34 1019.66 1019.96 1020.24 1020.48 1020.66 1020.75 1020.76 1020.68 1020.54 1020.36 1020.17 1020.03 1019.95 1019.95 1020.04 1020.20 1020.41
1011.69 1011.88 1012.11 1012.42 1012.83 1013.31 1013.85 1014.39 1014.88 1015.29 1015.60 1015.80 1015.91 1015.98 1016.05 1016.16 1016.33 1016.58 1016.91 1017.29 1017.68 1018.08 1018.45 1018.78 1019.09 1019.38 1019.66 1019.93 1020.19 1020.44 1020.64 1020.78 1020.83 1020.80 1020.69 1020.52 1020.33 1020.16 1020.03 1019.98 1020.02 1020.13 1020.30
1011.41 1011.58 1011.79 1012.09 1012.50 1013.01 1013.59 1014.19 1014.74 1015.21 1015.54 1015.75 1015.86 1015.91 1015.95 1016.04 1016.22 1016.49 1016.85 1017.26 1017.69 1018.10 1018.47 1018.79 1019.06 1019.30 1019.53 1019.77 1020.03 1020.28 1020.52 1020.71 1020.83 1020.87 1020.81 1020.68 1020.51 1020.32 1020.16 1020.06 1020.04 1020.09 1020.20
1011.03 1011.22 1011.43 1011.72 1012.13 1012.66 1013.28 1013.93 1014.53 1015.05 1015.42 1015.65 1015.76 1015.80 1015.84 1015.92 1016.10 1016.38 1016.75 1017.18 1017.62 1018.04 1018.40 1018.69 1018.92 1019.11 1019.30 1019.51 1019.76 1020.03 1020.30 1020.56 1020.75 1020.86 1020.87 1020.80 1020.65 1020.46 1020.28 1020.14 1020.06 1020.05 1020.11
1010.55 1010.77 1011.00 1011.30 1011.72 1012.26 1012.90 1013.58 1014.23 1014.78 1015.19 1015.45 1015.57 1015.63 1015.66 1015.75 1015.92 1016.20 1016.58 1017.01 1017.45 1017.86 1018.20 1018.47 1018.67 1018.83 1018.98 1019.17 1019.41 1019.69 1020.00 1020.31 1020.57 1020.75 1020.83 1020.81 1020.70 1020.52 1020.33 1020.16 1020.04 1019.98 1019.99
1009.98 1010.26 1010.51 1010.82 1011.25 1011.79 1012.44 1013.14 1013.81 1014.39 1014.83 1015.11 1015.27 1015.34 1015.38 1015.47 1015.65 1015.92 1016.30 1016.73 1017.16 1017.56 1017.89 1018.14 1018.32 1018.46 1018.60 1018.77 1019.01 1019.30 1019.64 1019.98 1020.29 1020.53 1020.66 1020.69 1020.61 1020.47 1020.28 1020.10 1019.95 1019.86 1019.84
Thickness
5776 5780 5782 5782 5783 5783 5784 5785 5785 5784 5783 5782 5781 5779 5778 5776 5775 5773 5772 5770 5769 5767 5766 5765 5763 5762 5761 5759 5758 5757 5755 5753 5752 5751 5749 5747 5746 5744 5743 5742 5740 5738 5736
5780 5780 5781 5782 5782 5782 5782 5782 5782 5782 5781 5780 5779 5778 5776 5775 5773 5771 5770 5768 5767 5766 5764 5763 5761 5760 5759 5758 5756 5754 5753 5752 5750 5749 5747 5745 5744 5743 5741 5740 5738 5737 5735
5781 5781 5780 5781 5781 5781 5781 5780 5780 5780 5779 5778 5777 5776 5774 5773 5771 5770 5768 5766 5765 5764 5763 5761 5760 5758 5757 5756 5754 5752 5751 5750 5748 5747 5745 5744 5742 5741 5739 5738 5737 5735 5733
5781 5780 5780 5780 5780 5779 5779 5779 5778 5778 5777 5776 5775 5774 5772 5771 5770 5768 5766 5765 5763 5762 5761 5760 5758 5757 5755 5754 5752 5750 5749 5748 5747 5745 5743 5742 5741 5739 5738 5736 5735 5734 5732
5781 5780 5779 5779 5778 5778 5777 5777 5776 5776 5775 5774 5773 5772 5770 5769 5768 5767 5765 5763 5762 5760 5759 5758 5757 5755 5754 5752 5751 5749 5748 5746 5745 5743 5741 5740 5739 5737 5736 5735 5733 5732 5731
5780 5779 5779 5778 5777 5776 5776 5775 5774 5774 5774 5773 5771 5770 5769 5768 5767 5765 5763 5762 5761 5759 5758 5757 5755 5754 5752 5751 5750 5748 5747 5745 5743 5741 5740 5738 5737 5736 5734 5733 5731 5730 5729
5780 5779 5778 5777 5776 5775 5774 5773 5773 5772 5771 5771 5770 5768 5767 5766 5765 5763 5762 5761 5760 5758 5757 5755 5754 5753 5751 5750 5748 5748 5746 5744 5742 5740 5738 5737 5736 5734 5733 5731 5730 5728 5727
5781 5779 5777 5776 5775 5774 5773 5773 5773 5771 5770 5769 5768 5767 5766 5765 5763 5762 5761 5759 5758 5757 5756 5754 5753 5752 5751 5749 5747 5746 5745 5743 5741 5739 5737 5736 5734 5733 5731 5730 5728 5727 5726
5780 5778 5777 5775 5774 5773 5772 5771 5771 5770 5769 5768 5766 5765 5764 5763 5762 5760 5759 5758 5757 5756 5755 5753 5752 5751 5750 5748 5747 5745 5744 5742 5740 5738 5736 5735 5733 5731 5730 5728 5726 5725 5724
5779 5777 5776 5774 5773 5772 5771 5770 5769 5768 5767 5766 5765 5764 5763 5762 5760 5759 5758 5756 5756 5755 5754 5753 5751 5750 5749 5747 5746 5745 5743 5741 5739 5737 5735 5733 5732 5730 5729 5727 5725 5724 5723
5777 5777 5776 5774 5773 5772 5771 5769 5768 5767 5766 5765 5763 5762 5761 5760 5759 5758 5756 5755 5754 5753 5753 5752 5751 5750 5748 5747 5745 5744 5742 5740 5739 5737 5735 5733 5731 5729 5728 5726 5724 5723 5721
5776 5776 5776 5775 5773 5772 5771 5769 5768 5766 5765 5764 5762 5761 5760 5759 5758 5756 5755 5754 5754 5753 5752 5751 5750 5749 5748 5747 5745 5744 5742 5740 5738 5736 5734 5732 5731 5729 5727 5725 5724 5722 5721
5781 5779 5777 5776 5774 5773 5772 5769 5767 5766 5764 5763 5762 5761 5759 5758 5756 5755 5754 5753 5753 5752 5751 5750 5750 5749 5748 5747 5745 5744 5742 5740 5738 5736 5734 5732 5731 5729 5727 5725 5723 5722 5720
5783 5782 5780 5778 5776 5775 5773 5770 5768 5766 5764 5763 5762 5761 5759 5757 5756 5754 5753 5753 5752 5751 5750 5750 5749 5749 5748 5746 5746 5744 5742 5740 5738 5737 5735 5733 5731 5729 5727 5725 5723 5722 5720
5786 5785 5783 5782 5779 5777 5773 5771 5769 5767 5765 5764 5763 5761 5759 5757 5755 5754 5753 5752 5752 5751 5750 5750 5749 5749 5748 5747 5746 5745 5743 5741 5739 5737 5735 5733 5732 5730 5728 5726 5724 5722 5721
5790 5787 5786 5784 5782 5779 5775 5772 5771 5769 5767 5765 5764 5762 5761 5759 5757 5755 5753 5752 5752 5752 5751 5751 5750 5749 5749 5748 5746 5745 5743 5742 5740 5738 5736 5734 5732 5730 5729 5727 5725 5723 5722
5793 5790 5788 5786 5784 5780 5778 5775 5773 5770 5768 5766 5765 5763 5762 5760 5758 5756 5754 5753 5753 5753 5752 5751 5750 5749 5748 5748 5746 5745 5744 5742 5740 5739 5737 5735 5733 5731 5730 5728 5726 5725 5723
5795 5791 5790 5789 5785 5782 5779 5776 5774 5772 5769 5767 5765 5763 5762 5760 5758 5756 5755 5754 5753 5753 5752 5751 5749 5748 5747 5746 5745 5745 5744 5743 5741 5740 5738 5736 5734 5733 5731 5730 5728 5726 5724
5798 5794 5790 5789 5785 5783 5780 5777 5775 5772 5769 5767 5765 5763 5762 5760 5759 5757 5755 5754 5753 5752 5752 5751 5749 5747 5745 5745 5745 5745 5744 5744 5742 5741 5739 5737 5736 5734 5733 5732 5730 5728 5726
5801 5797 5793 5789 5786 5784 5780 5777 5773 5770 5769 5767 5765 5764 5762 5761 5759 5757 5755 5754 5754 5752 5751 5750 5748 5748 5746 5745 5746 5745 5744 5744 5743 5742 5741 5740 5738 5736 5735 5733 5732 5730 5728
5802 5797 5794 5789 5787 5783 5779 5774 5770 5767 5767 5766 5765 5764 5763 5761 5760 5758 5756 5755 5754 5752 5751 5750 5748 5746 5745 5745 5741 5739 5741 5744 5743 5744 5743 5742 5740 5739 5737 5735 5733 5732 5730
5803 5799 5795 5792 5788 5785 5782 5778 5774 5770 5768 5767 5766 5765 5763 5762 5760 5758 5757 5755 5754 5752 5750 5749 5747 5744 5744 5744 5739 5733 5730 5733 5740 5746 5744 5743 5742 5741 5739 5737 5735 5734 5732
5805 5802 5800 5794 5791 5788 5784 5780 5775 5771 5768 5765 5764 5763 5763 5762 5760 5759 5758 5756 5754 5752 5750 5749 5748 5745 5741 5743 5742 5736 5728 5724 5731 5740 5744 5745 5744 5742 5741 5739 5737 5735 5733
5809 5807 5803 5798 5793 5790 5786 5781 5774 5769 5764 5765 5765 5764 5763 5762 5760 5759 5758 5756 5754 5752 5751 5750 5749 5747 5744 5740 5741 5741 5739 5736 5730 5729 5737 5742 5743 5742 5742 5741 5739 5737 5735
5812 5808 5804 5799 5795 5791 5787 5783 5777 5772 5769 5768 5766 5764 5763 5762 5761 5759 5758 5756 5754 5753 5751 5750 5749 5747 5745 5742 5740 5739 5738 5736 5735 5729 5727 5733 5738 5742 5743 5742 5741 5739 5737
5813 5809 5804 5799 5795 5792 5788 5784 5780 5774 5771 5767 5765 5763 5762 5761 5761 5759 5758 5756 5755 5753 5752 5750 5749 5747 5745 5743 5742 5740 5737 5734 5732 5730 5728 5729 5731 5737 5741 5742 5741 5739 5738